Data supplied by UK-AIR on 3/5/2024
All Data GMT hour ending 
Status: R =Ratified P=Provisional,P*=As supplied
,,Coventry Allesley,,,,,,,,,,,,,,,,,,,,,,,
Date,time,"PM<sub>10</sub> particulate matter (Hourly measured)",status,unit,"Nitric oxide",status,unit,"Nitrogen dioxide",status,unit,"Nitrogen oxides as nitrogen dioxide",status,unit,"Ozone",status,unit,"PM<sub>2.5</sub> particulate matter (Hourly measured)",status,unit
 
01-01-2024,01:00,5.750,P,ugm-3 (FIDAS),1.81274,P,ugm-3,0.00000,P,ugm-3,2.77950,P,ugm-3,66.52333,P,ugm-3,3.609,P,ugm-3 (Ref.eq)
01-01-2024,02:00,4.825,P,ugm-3 (FIDAS),2.44720,P,ugm-3,0.62539,P,ugm-3,4.37771,P,ugm-3,67.92032,P,ugm-3,2.736,P,ugm-3 (Ref.eq)
01-01-2024,03:00,4.350,P,ugm-3 (FIDAS),2.03934,P,ugm-3,-0.10423,P,ugm-3,3.02271,P,ugm-3,66.15746,P,ugm-3,2.500,P,ugm-3 (Ref.eq)
01-01-2024,04:00,4.400,P,ugm-3 (FIDAS),1.80141,P,ugm-3,-0.10423,P,ugm-3,2.65790,P,ugm-3,63.91229,P,ugm-3,2.359,P,ugm-3 (Ref.eq)
01-01-2024,05:00,4.800,P,ugm-3 (FIDAS),1.83540,P,ugm-3,-0.41692,P,ugm-3,2.39732,P,ugm-3,62.56520,P,ugm-3,2.264,P,ugm-3 (Ref.eq)
01-01-2024,06:00,4.125,P,ugm-3 (FIDAS),1.39355,P,ugm-3,-0.62539,P,ugm-3,1.51135,P,ugm-3,63.86240,P,ugm-3,2.170,P,ugm-3 (Ref.eq)
01-01-2024,07:00,5.450,P,ugm-3 (FIDAS),1.86939,P,ugm-3,0.00000,P,ugm-3,2.86636,P,ugm-3,63.81251,P,ugm-3,2.736,P,ugm-3 (Ref.eq)
01-01-2024,08:00,5.750,P,ugm-3 (FIDAS),1.80141,P,ugm-3,0.93808,P,ugm-3,3.70021,P,ugm-3,60.46971,P,ugm-3,3.019,P,ugm-3 (Ref.eq)
01-01-2024,09:00,8.025,P,ugm-3 (FIDAS),2.14130,P,ugm-3,4.48194,P,ugm-3,7.76523,P,ugm-3,52.88605,P,ugm-3,3.915,P,ugm-3 (Ref.eq)
01-01-2024,10:00,13.050,P,ugm-3 (FIDAS),3.22895,P,ugm-3,4.58618,P,ugm-3,9.53716,P,ugm-3,53.33508,P,ugm-3,6.038,P,ugm-3 (Ref.eq)
01-01-2024,11:00,13.250,P,ugm-3 (FIDAS),2.99103,P,ugm-3,3.12694,P,ugm-3,7.71311,P,ugm-3,59.92089,P,ugm-3,6.085,P,ugm-3 (Ref.eq)
01-01-2024,12:00,13.700,P,ugm-3 (FIDAS),6.21997,P,ugm-3,6.35811,P,ugm-3,15.89527,P,ugm-3,54.73207,P,ugm-3,6.415,P,ugm-3 (Ref.eq)
01-01-2024,13:00,13.375,P,ugm-3 (FIDAS),4.75845,P,ugm-3,11.62178,P,ugm-3,18.91797,P,ugm-3,45.85121,P,ugm-3,6.910,P,ugm-3 (Ref.eq)
01-01-2024,14:00,16.050,P,ugm-3 (FIDAS),5.54020,P,ugm-3,22.04491,P,ugm-3,30.53976,P,ugm-3,35.82282,P,ugm-3,8.420,P,ugm-3 (Ref.eq)
01-01-2024,15:00,13.825,P,ugm-3 (FIDAS),4.72446,P,ugm-3,18.70951,P,ugm-3,25.95358,P,ugm-3,42.40863,P,ugm-3,6.627,P,ugm-3 (Ref.eq)
01-01-2024,16:00,11.175,P,ugm-3 (FIDAS),3.50086,P,ugm-3,16.15584,P,ugm-3,21.52375,P,ugm-3,41.16131,P,ugm-3,5.425,P,ugm-3 (Ref.eq)
01-01-2024,17:00,8.675,P,ugm-3 (FIDAS),2.10731,P,ugm-3,11.04851,P,ugm-3,14.27968,P,ugm-3,48.54540,P,ugm-3,5.519,P,ugm-3 (Ref.eq)
01-01-2024,18:00,6.475,P,ugm-3 (FIDAS),1.66546,P,ugm-3,7.76523,P,ugm-3,10.31889,P,ugm-3,53.63444,P,ugm-3,4.764,P,ugm-3 (Ref.eq)
01-01-2024,19:00,4.300,P,ugm-3 (FIDAS),1.66546,P,ugm-3,6.04541,P,ugm-3,8.59908,P,ugm-3,56.82756,P,ugm-3,3.349,P,ugm-3 (Ref.eq)
01-01-2024,20:00,2.475,P,ugm-3 (FIDAS),1.73344,P,ugm-3,6.25388,P,ugm-3,8.91177,P,ugm-3,57.82541,P,ugm-3,2.123,P,ugm-3 (Ref.eq)
01-01-2024,21:00,1.775,P,ugm-3 (FIDAS),1.49551,P,ugm-3,4.27348,P,ugm-3,6.56657,P,ugm-3,61.96649,P,ugm-3,1.344,P,ugm-3 (Ref.eq)
01-01-2024,22:00,1.300,P,ugm-3 (FIDAS),1.66546,P,ugm-3,3.07482,P,ugm-3,5.62849,P,ugm-3,64.56090,P,ugm-3,0.849,P,ugm-3 (Ref.eq)
01-01-2024,23:00,1.350,P,ugm-3 (FIDAS),1.49551,P,ugm-3,3.07482,P,ugm-3,5.36791,P,ugm-3,65.20950,P,ugm-3,0.802,P,ugm-3 (Ref.eq)
01-01-2024,24:00,0.900,P,ugm-3 (FIDAS),1.52950,P,ugm-3,1.77193,P,ugm-3,4.11713,P,ugm-3,70.29853,P,ugm-3,0.542,P,ugm-3 (Ref.eq)
02-01-2024,01:00,1.175,P,ugm-3 (FIDAS),1.58615,P,ugm-3,0.00000,P,ugm-3,2.43206,P,ugm-3,73.50828,P,ugm-3,0.542,P,ugm-3 (Ref.eq)
02-01-2024,02:00,2.100,P,ugm-3 (FIDAS),1.63147,P,ugm-3,0.41693,P,ugm-3,2.91848,P,ugm-3,69.78298,P,ugm-3,0.920,P,ugm-3 (Ref.eq)
02-01-2024,03:00,3.950,P,ugm-3 (FIDAS),1.66546,P,ugm-3,-0.46904,P,ugm-3,2.08463,P,ugm-3,70.59789,P,ugm-3,1.958,P,ugm-3 (Ref.eq)
02-01-2024,04:00,7.275,P,ugm-3 (FIDAS),1.73344,P,ugm-3,-0.15635,P,ugm-3,2.50155,P,ugm-3,71.09681,P,ugm-3,3.915,P,ugm-3 (Ref.eq)
02-01-2024,05:00,8.550,P,ugm-3 (FIDAS),1.90338,P,ugm-3,1.45924,P,ugm-3,4.37771,P,ugm-3,64.96004,P,ugm-3,4.599,P,ugm-3 (Ref.eq)
02-01-2024,06:00,11.150,P,ugm-3 (FIDAS),2.58316,P,ugm-3,3.43963,P,ugm-3,7.40042,P,ugm-3,62.71487,P,ugm-3,6.085,P,ugm-3 (Ref.eq)
02-01-2024,07:00,15.875,P,ugm-3 (FIDAS),3.70479,P,ugm-3,9.95408,P,ugm-3,15.63469,P,ugm-3,55.18111,P,ugm-3,8.844,P,ugm-3 (Ref.eq)
02-01-2024,08:00,17.625,P,ugm-3 (FIDAS),8.29330,P,ugm-3,14.17545,P,ugm-3,26.89166,P,ugm-3,58.52390,P,ugm-3,9.906,P,ugm-3 (Ref.eq)
02-01-2024,09:00,13.975,P,ugm-3 (FIDAS),6.49189,P,ugm-3,21.73222,P,ugm-3,31.68630,P,ugm-3,47.14841,P,ugm-3,7.995,P,ugm-3 (Ref.eq)
02-01-2024,10:00,7.925,P,ugm-3 (FIDAS),3.05900,P,ugm-3,19.02220,P,ugm-3,23.71261,P,ugm-3,48.64519,P,ugm-3,5.613,P,ugm-3 (Ref.eq)
02-01-2024,11:00,4.825,P,ugm-3 (FIDAS),1.86939,P,ugm-3,11.72602,P,ugm-3,14.59238,P,ugm-3,54.88175,P,ugm-3,3.514,P,ugm-3 (Ref.eq)
02-01-2024,12:00,2.900,P,ugm-3 (FIDAS),1.93737,P,ugm-3,9.84985,P,ugm-3,12.82044,P,ugm-3,56.37853,P,ugm-3,1.981,P,ugm-3 (Ref.eq)
02-01-2024,13:00,1.600,P,ugm-3 (FIDAS),1.63147,P,ugm-3,13.86276,P,ugm-3,16.36431,P,ugm-3,54.38283,P,ugm-3,1.132,P,ugm-3 (Ref.eq)
02-01-2024,14:00,2.300,P,ugm-3 (FIDAS),5.47222,P,ugm-3,29.28898,P,ugm-3,37.67960,P,ugm-3,33.92690,P,ugm-3,1.533,P,ugm-3 (Ref.eq)
02-01-2024,15:00,2.000,P,ugm-3 (FIDAS),6.62784,P,ugm-3,13.55006,P,ugm-3,23.71261,P,ugm-3,60.51960,P,ugm-3,0.943,P,ugm-3 (Ref.eq)
02-01-2024,16:00,1.950,P,ugm-3 (FIDAS),3.29693,P,ugm-3,6.67080,P,ugm-3,11.72602,P,ugm-3,58.22455,P,ugm-3,1.061,P,ugm-3 (Ref.eq)
02-01-2024,17:00,1.675,P,ugm-3 (FIDAS),3.67080,P,ugm-3,13.70641,P,ugm-3,19.33490,P,ugm-3,70.89724,P,ugm-3,1.014,P,ugm-3 (Ref.eq)
02-01-2024,18:00,1.875,P,ugm-3 (FIDAS),2.82108,P,ugm-3,10.31889,P,ugm-3,14.64449,P,ugm-3,71.39617,P,ugm-3,1.274,P,ugm-3 (Ref.eq)
02-01-2024,19:00,1.900,P,ugm-3 (FIDAS),3.39889,P,ugm-3,8.02581,P,ugm-3,13.23737,P,ugm-3,69.45036,P,ugm-3,1.250,P,ugm-3 (Ref.eq)
02-01-2024,20:00,2.400,P,ugm-3 (FIDAS),2.82108,P,ugm-3,7.71311,P,ugm-3,12.03871,P,ugm-3,65.65853,P,ugm-3,1.321,P,ugm-3 (Ref.eq)
02-01-2024,21:00,3.950,P,ugm-3 (FIDAS),3.26294,P,ugm-3,5.94118,P,ugm-3,10.94428,P,ugm-3,66.80606,P,ugm-3,2.264,P,ugm-3 (Ref.eq)
02-01-2024,22:00,7.600,P,ugm-3 (FIDAS),2.65114,P,ugm-3,2.76213,P,ugm-3,6.82715,P,ugm-3,69.25079,P,ugm-3,4.175,P,ugm-3 (Ref.eq)
02-01-2024,23:00,8.425,P,ugm-3 (FIDAS),1.80141,P,ugm-3,1.51135,P,ugm-3,4.27348,P,ugm-3,70.39832,P,ugm-3,4.717,P,ugm-3 (Ref.eq)
02-01-2024,24:00,8.875,P,ugm-3 (FIDAS),1.90338,P,ugm-3,0.88597,P,ugm-3,3.80444,P,ugm-3,70.09896,P,ugm-3,4.882,P,ugm-3 (Ref.eq)
03-01-2024,01:00,7.750,P,ugm-3 (FIDAS),1.94870,P,ugm-3,1.04231,P,ugm-3,4.03027,P,ugm-3,63.79588,P,ugm-3,4.104,P,ugm-3 (Ref.eq)
03-01-2024,02:00,6.500,P,ugm-3 (FIDAS),1.31424,P,ugm-3,0.83385,P,ugm-3,2.84899,P,ugm-3,61.13494,P,ugm-3,3.561,P,ugm-3 (Ref.eq)
03-01-2024,03:00,6.550,P,ugm-3 (FIDAS),1.35956,P,ugm-3,3.33540,P,ugm-3,5.42003,P,ugm-3,51.63874,P,ugm-3,3.632,P,ugm-3 (Ref.eq)
03-01-2024,04:00,4.725,P,ugm-3 (FIDAS),2.51518,P,ugm-3,4.16925,P,ugm-3,8.02581,P,ugm-3,59.87100,P,ugm-3,3.066,P,ugm-3 (Ref.eq)
03-01-2024,05:00,5.475,P,ugm-3 (FIDAS),1.52950,P,ugm-3,2.18886,P,ugm-3,4.53406,P,ugm-3,62.81466,P,ugm-3,3.585,P,ugm-3 (Ref.eq)
03-01-2024,06:00,5.575,P,ugm-3 (FIDAS),2.03934,P,ugm-3,2.34520,P,ugm-3,5.47214,P,ugm-3,63.51315,P,ugm-3,3.302,P,ugm-3 (Ref.eq)
03-01-2024,07:00,4.675,P,ugm-3 (FIDAS),3.56884,P,ugm-3,5.52426,P,ugm-3,10.99640,P,ugm-3,60.12046,P,ugm-3,2.665,P,ugm-3 (Ref.eq)
03-01-2024,08:00,8.100,P,ugm-3 (FIDAS),7.78346,P,ugm-3,13.18525,P,ugm-3,25.11973,P,ugm-3,54.28304,P,ugm-3,4.528,P,ugm-3 (Ref.eq)
03-01-2024,09:00,11.500,P,ugm-3 (FIDAS),7.61352,P,ugm-3,15.94738,P,ugm-3,27.62128,P,ugm-3,50.19186,P,ugm-3,6.274,P,ugm-3 (Ref.eq)
03-01-2024,10:00,11.400,P,ugm-3 (FIDAS),6.93374,P,ugm-3,15.68680,P,ugm-3,26.31839,P,ugm-3,51.13981,P,ugm-3,6.226,P,ugm-3 (Ref.eq)
03-01-2024,11:00,10.300,P,ugm-3 (FIDAS),13.90147,P,ugm-3,14.80084,P,ugm-3,36.11613,P,ugm-3,56.27874,P,ugm-3,5.519,P,ugm-3 (Ref.eq)
03-01-2024,12:00,7.125,P,ugm-3 (FIDAS),4.86042,P,ugm-3,10.42313,P,ugm-3,17.87566,P,ugm-3,56.62799,P,ugm-3,3.915,P,ugm-3 (Ref.eq)
03-01-2024,13:00,5.300,P,ugm-3 (FIDAS),6.49189,P,ugm-3,11.10063,P,ugm-3,21.05471,P,ugm-3,55.18111,P,ugm-3,3.113,P,ugm-3 (Ref.eq)
03-01-2024,14:00,2.750,P,ugm-3 (FIDAS),4.79244,P,ugm-3,7.40042,P,ugm-3,14.74872,P,ugm-3,63.41337,P,ugm-3,1.557,P,ugm-3 (Ref.eq)
03-01-2024,15:00,3.175,P,ugm-3 (FIDAS),4.69047,P,ugm-3,10.47524,P,ugm-3,17.66720,P,ugm-3,54.93164,P,ugm-3,1.698,P,ugm-3 (Ref.eq)
03-01-2024,16:00,3.075,P,ugm-3 (FIDAS),5.03036,P,ugm-3,12.40352,P,ugm-3,20.11663,P,ugm-3,50.39143,P,ugm-3,1.698,P,ugm-3 (Ref.eq)
03-01-2024,17:00,3.650,P,ugm-3 (FIDAS),6.72981,P,ugm-3,19.02220,P,ugm-3,29.34110,P,ugm-3,40.61250,P,ugm-3,1.840,P,ugm-3 (Ref.eq)
03-01-2024,18:00,4.650,P,ugm-3 (FIDAS),9.14302,P,ugm-3,24.96338,P,ugm-3,38.98249,P,ugm-3,33.72733,P,ugm-3,2.642,P,ugm-3 (Ref.eq)
03-01-2024,19:00,7.250,P,ugm-3 (FIDAS),10.63853,P,ugm-3,33.24977,P,ugm-3,49.56196,P,ugm-3,22.50152,P,ugm-3,4.835,P,ugm-3 (Ref.eq)
03-01-2024,20:00,5.350,P,ugm-3 (FIDAS),4.96238,P,ugm-3,20.32509,P,ugm-3,27.93398,P,ugm-3,42.70798,P,ugm-3,3.632,P,ugm-3 (Ref.eq)
03-01-2024,21:00,4.950,P,ugm-3 (FIDAS),2.34524,P,ugm-3,9.53716,P,ugm-3,13.13314,P,ugm-3,51.43917,P,ugm-3,3.113,P,ugm-3 (Ref.eq)
03-01-2024,22:00,4.475,P,ugm-3 (FIDAS),4.41856,P,ugm-3,10.94428,P,ugm-3,17.71931,P,ugm-3,48.09637,P,ugm-3,2.901,P,ugm-3 (Ref.eq)
03-01-2024,23:00,4.050,P,ugm-3 (FIDAS),2.20928,P,ugm-3,5.88907,P,ugm-3,9.27658,P,ugm-3,51.43917,P,ugm-3,2.500,P,ugm-3 (Ref.eq)
03-01-2024,24:00,2.375,P,ugm-3 (FIDAS),1.63147,P,ugm-3,3.23117,P,ugm-3,5.73272,P,ugm-3,53.13551,P,ugm-3,1.627,P,ugm-3 (Ref.eq)
04-01-2024,01:00,2.850,P,ugm-3 (FIDAS),1.45020,P,ugm-3,2.91848,P,ugm-3,5.14208,P,ugm-3,48.22942,P,ugm-3,1.675,P,ugm-3 (Ref.eq)
04-01-2024,02:00,2.850,P,ugm-3 (FIDAS),1.54083,P,ugm-3,2.64053,P,ugm-3,5.00310,P,ugm-3,51.55558,P,ugm-3,1.627,P,ugm-3 (Ref.eq)
04-01-2024,03:00,3.000,P,ugm-3 (FIDAS),1.63147,P,ugm-3,0.78173,P,ugm-3,3.28328,P,ugm-3,54.58240,P,ugm-3,1.604,P,ugm-3 (Ref.eq)
04-01-2024,04:00,2.575,P,ugm-3 (FIDAS),1.86939,P,ugm-3,1.14654,P,ugm-3,4.01290,P,ugm-3,54.38283,P,ugm-3,1.557,P,ugm-3 (Ref.eq)
04-01-2024,05:00,5.100,P,ugm-3 (FIDAS),2.14130,P,ugm-3,1.92828,P,ugm-3,5.21156,P,ugm-3,56.12906,P,ugm-3,2.594,P,ugm-3 (Ref.eq)
04-01-2024,06:00,6.925,P,ugm-3 (FIDAS),2.37923,P,ugm-3,3.07482,P,ugm-3,6.72292,P,ugm-3,54.28304,P,ugm-3,3.443,P,ugm-3 (Ref.eq)
04-01-2024,07:00,9.800,P,ugm-3 (FIDAS),6.25396,P,ugm-3,12.82044,P,ugm-3,22.40972,P,ugm-3,45.35228,P,ugm-3,4.764,P,ugm-3 (Ref.eq)
04-01-2024,08:00,12.300,P,ugm-3 (FIDAS),14.03743,P,ugm-3,26.10993,P,ugm-3,47.63368,P,ugm-3,28.13937,P,ugm-3,6.109,P,ugm-3 (Ref.eq)
04-01-2024,09:00,10.875,P,ugm-3 (FIDAS),14.71721,P,ugm-3,37.47113,P,ugm-3,60.03720,P,ugm-3,23.89851,P,ugm-3,5.613,P,ugm-3 (Ref.eq)
04-01-2024,10:00,11.825,P,ugm-3 (FIDAS),12.10006,P,ugm-3,24.70281,P,ugm-3,43.25597,P,ugm-3,30.83357,P,ugm-3,5.731,P,ugm-3 (Ref.eq)
04-01-2024,11:00,13.700,P,ugm-3 (FIDAS),7.81745,P,ugm-3,20.79413,P,ugm-3,32.78073,P,ugm-3,39.21551,P,ugm-3,7.170,P,ugm-3 (Ref.eq)
04-01-2024,12:00,13.675,P,ugm-3 (FIDAS),11.93011,P,ugm-3,19.80394,P,ugm-3,38.09652,P,ugm-3,38.76647,P,ugm-3,6.604,P,ugm-3 (Ref.eq)
04-01-2024,13:00,16.200,P,ugm-3 (FIDAS),9.65286,P,ugm-3,21.00260,P,ugm-3,35.80343,P,ugm-3,39.91400,P,ugm-3,7.689,P,ugm-3 (Ref.eq)
04-01-2024,14:00,16.325,P,ugm-3 (FIDAS),9.48291,P,ugm-3,29.23687,P,ugm-3,43.77713,P,ugm-3,25.89421,P,ugm-3,7.524,P,ugm-3 (Ref.eq)
04-01-2024,15:00,15.350,P,ugm-3 (FIDAS),6.62784,P,ugm-3,28.81994,P,ugm-3,38.98249,P,ugm-3,24.14797,P,ugm-3,7.146,P,ugm-3 (Ref.eq)
04-01-2024,16:00,14.575,P,ugm-3 (FIDAS),4.21463,P,ugm-3,30.53976,P,ugm-3,37.00209,P,ugm-3,14.61850,P,ugm-3,7.594,P,ugm-3 (Ref.eq)
04-01-2024,17:00,18.825,P,ugm-3 (FIDAS),15.56693,P,ugm-3,52.21986,P,ugm-3,76.08881,P,ugm-3,0.09979,P,ugm-3,9.764,P,ugm-3 (Ref.eq)
04-01-2024,18:00,23.300,P,ugm-3 (FIDAS),12.98377,P,ugm-3,52.16774,P,ugm-3,72.07591,P,ugm-3,1.04774,P,ugm-3,12.972,P,ugm-3 (Ref.eq)
04-01-2024,19:00,21.675,P,ugm-3 (FIDAS),17.67424,P,ugm-3,53.67909,P,ugm-3,80.77922,P,ugm-3,1.44688,P,ugm-3,13.184,P,ugm-3 (Ref.eq)
04-01-2024,20:00,19.700,P,ugm-3 (FIDAS),7.47756,P,ugm-3,46.17444,P,ugm-3,57.63988,P,ugm-3,3.89162,P,ugm-3,12.618,P,ugm-3 (Ref.eq)
04-01-2024,21:00,18.675,P,ugm-3 (FIDAS),3.94272,P,ugm-3,43.30808,P,ugm-3,49.35350,P,ugm-3,9.52947,P,ugm-3,12.005,P,ugm-3 (Ref.eq)
04-01-2024,22:00,17.100,P,ugm-3 (FIDAS),2.34524,P,ugm-3,25.69300,P,ugm-3,29.28898,P,ugm-3,25.44518,P,ugm-3,11.651,P,ugm-3 (Ref.eq)
04-01-2024,23:00,23.100,P,ugm-3 (FIDAS),2.37923,P,ugm-3,28.81994,P,ugm-3,32.46803,P,ugm-3,12.02409,P,ugm-3,16.321,P,ugm-3 (Ref.eq)
04-01-2024,24:00,23.025,P,ugm-3 (FIDAS),3.87474,P,ugm-3,44.03770,P,ugm-3,49.97888,P,ugm-3,6.48603,P,ugm-3,16.910,P,ugm-3 (Ref.eq)
05-01-2024,01:00,15.825,P,ugm-3 (FIDAS),1.58615,P,ugm-3,22.79190,P,ugm-3,25.22396,P,ugm-3,25.07930,P,ugm-3,11.722,P,ugm-3 (Ref.eq)
05-01-2024,02:00,11.325,P,ugm-3 (FIDAS),1.63147,P,ugm-3,7.92158,P,ugm-3,10.42313,P,ugm-3,40.71228,P,ugm-3,6.934,P,ugm-3 (Ref.eq)
05-01-2024,03:00,9.900,P,ugm-3 (FIDAS),2.10731,P,ugm-3,9.06812,P,ugm-3,12.29929,P,ugm-3,40.41293,P,ugm-3,6.274,P,ugm-3 (Ref.eq)
05-01-2024,04:00,13.900,P,ugm-3 (FIDAS),1.63147,P,ugm-3,13.23737,P,ugm-3,15.73892,P,ugm-3,34.72518,P,ugm-3,9.623,P,ugm-3 (Ref.eq)
05-01-2024,05:00,15.200,P,ugm-3 (FIDAS),2.54917,P,ugm-3,15.99950,P,ugm-3,19.90817,P,ugm-3,31.53206,P,ugm-3,11.415,P,ugm-3 (Ref.eq)
05-01-2024,06:00,17.725,P,ugm-3 (FIDAS),4.14665,P,ugm-3,18.65739,P,ugm-3,25.01550,P,ugm-3,25.54496,P,ugm-3,13.679,P,ugm-3 (Ref.eq)
05-01-2024,07:00,19.300,P,ugm-3 (FIDAS),4.11266,P,ugm-3,23.66049,P,ugm-3,29.96648,P,ugm-3,22.55141,P,ugm-3,16.109,P,ugm-3 (Ref.eq)
05-01-2024,08:00,16.600,P,ugm-3 (FIDAS),6.52587,P,ugm-3,23.39992,P,ugm-3,33.40612,P,ugm-3,24.39743,P,ugm-3,12.807,P,ugm-3 (Ref.eq)
05-01-2024,09:00,13.900,P,ugm-3 (FIDAS),5.74413,P,ugm-3,21.78433,P,ugm-3,30.59187,P,ugm-3,27.54066,P,ugm-3,10.684,P,ugm-3 (Ref.eq)
05-01-2024,10:00,12.850,P,ugm-3 (FIDAS),7.30762,P,ugm-3,19.43913,P,ugm-3,30.64399,P,ugm-3,27.29120,P,ugm-3,9.788,P,ugm-3 (Ref.eq)
05-01-2024,11:00,11.800,P,ugm-3 (FIDAS),8.15734,P,ugm-3,22.35760,P,ugm-3,34.86535,P,ugm-3,25.64475,P,ugm-3,8.538,P,ugm-3 (Ref.eq)
05-01-2024,12:00,11.075,P,ugm-3 (FIDAS),8.42925,P,ugm-3,20.32509,P,ugm-3,33.24977,P,ugm-3,31.43228,P,ugm-3,7.406,P,ugm-3 (Ref.eq)
05-01-2024,13:00,8.275,P,ugm-3 (FIDAS),9.72083,P,ugm-3,21.36741,P,ugm-3,36.27248,P,ugm-3,35.12432,P,ugm-3,5.448,P,ugm-3 (Ref.eq)
05-01-2024,14:00,7.800,P,ugm-3 (FIDAS),7.13767,P,ugm-3,18.13624,P,ugm-3,29.08052,P,ugm-3,41.71013,P,ugm-3,5.165,P,ugm-3 (Ref.eq)
05-01-2024,15:00,10.225,P,ugm-3 (FIDAS),7.54554,P,ugm-3,22.51395,P,ugm-3,34.08362,P,ugm-3,32.77937,P,ugm-3,7.028,P,ugm-3 (Ref.eq)
05-01-2024,16:00,9.500,P,ugm-3 (FIDAS),6.62784,P,ugm-3,27.82974,P,ugm-3,37.99229,P,ugm-3,30.83357,P,ugm-3,6.156,P,ugm-3 (Ref.eq)
05-01-2024,17:00,10.475,P,ugm-3 (FIDAS),10.70651,P,ugm-3,35.23016,P,ugm-3,51.64658,P,ugm-3,20.35614,P,ugm-3,7.028,P,ugm-3 (Ref.eq)
05-01-2024,18:00,10.400,P,ugm-3 (FIDAS),7.06970,P,ugm-3,35.17805,P,ugm-3,46.01810,P,ugm-3,20.45593,P,ugm-3,7.689,P,ugm-3 (Ref.eq)
05-01-2024,19:00,10.175,P,ugm-3 (FIDAS),7.34161,P,ugm-3,35.90767,P,ugm-3,47.16464,P,ugm-3,19.80732,P,ugm-3,7.712,P,ugm-3 (Ref.eq)
05-01-2024,20:00,11.025,P,ugm-3 (FIDAS),6.01604,P,ugm-3,25.64089,P,ugm-3,34.86535,P,ugm-3,21.70324,P,ugm-3,9.104,P,ugm-3 (Ref.eq)
05-01-2024,21:00,11.125,P,ugm-3 (FIDAS),6.11801,P,ugm-3,22.09703,P,ugm-3,31.47784,P,ugm-3,26.29335,P,ugm-3,9.198,P,ugm-3 (Ref.eq)
05-01-2024,22:00,10.250,P,ugm-3 (FIDAS),3.02501,P,ugm-3,19.90817,P,ugm-3,24.54646,P,ugm-3,24.29765,P,ugm-3,8.420,P,ugm-3 (Ref.eq)
05-01-2024,23:00,11.225,P,ugm-3 (FIDAS),2.54917,P,ugm-3,19.02220,P,ugm-3,22.93088,P,ugm-3,24.29765,P,ugm-3,8.774,P,ugm-3 (Ref.eq)
05-01-2024,24:00,12.400,P,ugm-3 (FIDAS),2.41321,P,ugm-3,17.82354,P,ugm-3,21.52375,P,ugm-3,23.69894,P,ugm-3,9.693,P,ugm-3 (Ref.eq)
06-01-2024,01:00,13.425,P,ugm-3 (FIDAS),1.90338,P,ugm-3,14.80084,P,ugm-3,17.71931,P,ugm-3,26.54281,P,ugm-3,9.859,P,ugm-3 (Ref.eq)
06-01-2024,02:00,11.725,P,ugm-3 (FIDAS),1.85806,P,ugm-3,13.48058,P,ugm-3,16.32956,P,ugm-3,24.54711,P,ugm-3,9.080,P,ugm-3 (Ref.eq)
06-01-2024,03:00,9.900,P,ugm-3 (FIDAS),1.69945,P,ugm-3,11.93448,P,ugm-3,14.54026,P,ugm-3,25.69464,P,ugm-3,7.264,P,ugm-3 (Ref.eq)
06-01-2024,04:00,10.525,P,ugm-3 (FIDAS),1.52950,P,ugm-3,9.43293,P,ugm-3,11.77813,P,ugm-3,28.38883,P,ugm-3,7.948,P,ugm-3 (Ref.eq)
06-01-2024,05:00,10.525,P,ugm-3 (FIDAS),1.90338,P,ugm-3,7.24407,P,ugm-3,10.16255,P,ugm-3,29.88561,P,ugm-3,8.373,P,ugm-3 (Ref.eq)
06-01-2024,06:00,8.800,P,ugm-3 (FIDAS),1.59748,P,ugm-3,8.44273,P,ugm-3,10.89217,P,ugm-3,29.23701,P,ugm-3,7.052,P,ugm-3 (Ref.eq)
06-01-2024,07:00,6.350,P,ugm-3 (FIDAS),2.48119,P,ugm-3,10.05832,P,ugm-3,13.86276,P,ugm-3,28.93765,P,ugm-3,4.835,P,ugm-3 (Ref.eq)
06-01-2024,08:00,7.125,P,ugm-3 (FIDAS),5.50621,P,ugm-3,17.61508,P,ugm-3,26.05781,P,ugm-3,21.45378,P,ugm-3,4.953,P,ugm-3 (Ref.eq)
06-01-2024,09:00,10.000,P,ugm-3 (FIDAS),6.21997,P,ugm-3,23.81684,P,ugm-3,33.35400,P,ugm-3,11.82452,P,ugm-3,7.759,P,ugm-3 (Ref.eq)
06-01-2024,10:00,10.400,P,ugm-3 (FIDAS),11.48826,P,ugm-3,25.79723,P,ugm-3,43.41232,P,ugm-3,13.87012,P,ugm-3,7.901,P,ugm-3 (Ref.eq)
06-01-2024,11:00,9.350,P,ugm-3 (FIDAS),12.88180,P,ugm-3,19.96028,P,ugm-3,39.71211,P,ugm-3,25.69464,P,ugm-3,6.981,P,ugm-3 (Ref.eq)
06-01-2024,12:00,8.750,P,ugm-3 (FIDAS),10.29864,P,ugm-3,16.78123,P,ugm-3,32.57227,P,ugm-3,29.43658,P,ugm-3,6.297,P,ugm-3 (Ref.eq)
06-01-2024,13:00,8.850,P,ugm-3 (FIDAS),8.12335,P,ugm-3,13.86276,P,ugm-3,26.31839,P,ugm-3,34.07658,P,ugm-3,5.495,P,ugm-3 (Ref.eq)
06-01-2024,14:00,10.325,P,ugm-3 (FIDAS),6.28795,P,ugm-3,8.33850,P,ugm-3,17.97989,P,ugm-3,44.20476,P,ugm-3,4.410,P,ugm-3 (Ref.eq)
06-01-2024,15:00,8.500,P,ugm-3 (FIDAS),5.30227,P,ugm-3,9.74562,P,ugm-3,17.87566,P,ugm-3,40.01379,P,ugm-3,5.094,P,ugm-3 (Ref.eq)
06-01-2024,16:00,8.225,P,ugm-3 (FIDAS),5.37025,P,ugm-3,15.99950,P,ugm-3,24.23377,P,ugm-3,30.73378,P,ugm-3,5.425,P,ugm-3 (Ref.eq)
06-01-2024,17:00,8.725,P,ugm-3 (FIDAS),12.10006,P,ugm-3,34.39631,P,ugm-3,52.94948,P,ugm-3,12.37334,P,ugm-3,5.920,P,ugm-3 (Ref.eq)
06-01-2024,18:00,10.925,P,ugm-3 (FIDAS),15.87283,P,ugm-3,40.44173,P,ugm-3,64.77972,P,ugm-3,6.48603,P,ugm-3,7.382,P,ugm-3 (Ref.eq)
06-01-2024,19:00,12.325,P,ugm-3 (FIDAS),14.00344,P,ugm-3,35.28228,P,ugm-3,56.75392,P,ugm-3,14.41893,P,ugm-3,8.986,P,ugm-3 (Ref.eq)
06-01-2024,20:00,14.625,P,ugm-3 (FIDAS),4.04468,P,ugm-3,28.29878,P,ugm-3,34.50054,P,ugm-3,13.92001,P,ugm-3,11.557,P,ugm-3 (Ref.eq)
06-01-2024,21:00,15.275,P,ugm-3 (FIDAS),3.26294,P,ugm-3,24.80704,P,ugm-3,29.81014,P,ugm-3,16.16517,P,ugm-3,12.288,P,ugm-3 (Ref.eq)
06-01-2024,22:00,15.200,P,ugm-3 (FIDAS),2.58316,P,ugm-3,28.09032,P,ugm-3,32.05111,P,ugm-3,11.87442,P,ugm-3,12.642,P,ugm-3 (Ref.eq)
06-01-2024,23:00,16.550,P,ugm-3 (FIDAS),2.95704,P,ugm-3,32.25957,P,ugm-3,36.79363,P,ugm-3,8.93076,P,ugm-3,13.420,P,ugm-3 (Ref.eq)
06-01-2024,24:00,16.675,P,ugm-3 (FIDAS),4.52053,P,ugm-3,29.08052,P,ugm-3,36.01190,P,ugm-3,11.77463,P,ugm-3,13.821,P,ugm-3 (Ref.eq)
07-01-2024,01:00,13.675,P,ugm-3 (FIDAS),1.54083,P,ugm-3,21.54112,P,ugm-3,23.90370,P,ugm-3,20.09005,P,ugm-3,11.486,P,ugm-3 (Ref.eq)
07-01-2024,02:00,11.000,P,ugm-3 (FIDAS),1.63147,P,ugm-3,11.11800,P,ugm-3,13.61955,P,ugm-3,35.85608,P,ugm-3,9.151,P,ugm-3 (Ref.eq)
07-01-2024,03:00,10.075,P,ugm-3 (FIDAS),1.59748,P,ugm-3,6.46234,P,ugm-3,8.91177,P,ugm-3,39.96389,P,ugm-3,7.429,P,ugm-3 (Ref.eq)
07-01-2024,04:00,9.900,P,ugm-3 (FIDAS),1.49551,P,ugm-3,6.82715,P,ugm-3,9.12023,P,ugm-3,40.41293,P,ugm-3,7.476,P,ugm-3 (Ref.eq)
07-01-2024,05:00,8.100,P,ugm-3 (FIDAS),1.66546,P,ugm-3,4.79464,P,ugm-3,7.34830,P,ugm-3,50.74067,P,ugm-3,5.071,P,ugm-3 (Ref.eq)
07-01-2024,06:00,9.250,P,ugm-3 (FIDAS),1.49551,P,ugm-3,2.50155,P,ugm-3,4.79464,P,ugm-3,55.68003,P,ugm-3,4.623,P,ugm-3 (Ref.eq)
07-01-2024,07:00,9.000,P,ugm-3 (FIDAS),1.73344,P,ugm-3,3.90867,P,ugm-3,6.56657,P,ugm-3,51.93809,P,ugm-3,5.637,P,ugm-3 (Ref.eq)
07-01-2024,08:00,8.850,P,ugm-3 (FIDAS),1.83540,P,ugm-3,4.74252,P,ugm-3,7.55677,P,ugm-3,50.69078,P,ugm-3,5.354,P,ugm-3 (Ref.eq)
07-01-2024,09:00,7.875,P,ugm-3 (FIDAS),2.54917,P,ugm-3,5.68060,P,ugm-3,9.58928,P,ugm-3,51.93809,P,ugm-3,4.741,P,ugm-3 (Ref.eq)
07-01-2024,10:00,8.075,P,ugm-3 (FIDAS),3.84075,P,ugm-3,9.74562,P,ugm-3,15.63469,P,ugm-3,48.59530,P,ugm-3,4.599,P,ugm-3 (Ref.eq)
07-01-2024,11:00,6.775,P,ugm-3 (FIDAS),6.28795,P,ugm-3,10.68370,P,ugm-3,20.32509,P,ugm-3,51.88820,P,ugm-3,3.915,P,ugm-3 (Ref.eq)
07-01-2024,12:00,5.900,P,ugm-3 (FIDAS),3.67080,P,ugm-3,7.29619,P,ugm-3,12.92468,P,ugm-3,58.12476,P,ugm-3,3.113,P,ugm-3 (Ref.eq)
07-01-2024,13:00,5.750,P,ugm-3 (FIDAS),3.05900,P,ugm-3,4.22137,P,ugm-3,8.91177,P,ugm-3,67.10541,P,ugm-3,2.877,P,ugm-3 (Ref.eq)
07-01-2024,14:00,7.000,P,ugm-3 (FIDAS),2.41321,P,ugm-3,3.23117,P,ugm-3,6.93138,P,ugm-3,68.05337,P,ugm-3,3.278,P,ugm-3 (Ref.eq)
07-01-2024,15:00,8.000,P,ugm-3 (FIDAS),2.14130,P,ugm-3,4.63829,P,ugm-3,7.92158,P,ugm-3,66.25724,P,ugm-3,3.443,P,ugm-3 (Ref.eq)
07-01-2024,16:00,7.875,P,ugm-3 (FIDAS),2.17529,P,ugm-3,6.77503,P,ugm-3,10.11043,P,ugm-3,64.91014,P,ugm-3,3.892,P,ugm-3 (Ref.eq)
07-01-2024,17:00,8.200,P,ugm-3 (FIDAS),2.31125,P,ugm-3,9.22447,P,ugm-3,12.76833,P,ugm-3,62.81466,P,ugm-3,4.316,P,ugm-3 (Ref.eq)
07-01-2024,18:00,8.525,P,ugm-3 (FIDAS),1.59748,P,ugm-3,6.41022,P,ugm-3,8.85966,P,ugm-3,68.10326,P,ugm-3,4.458,P,ugm-3 (Ref.eq)
07-01-2024,19:00,9.175,P,ugm-3 (FIDAS),1.59748,P,ugm-3,6.67080,P,ugm-3,9.12023,P,ugm-3,71.69552,P,ugm-3,4.599,P,ugm-3 (Ref.eq)
07-01-2024,20:00,10.725,P,ugm-3 (FIDAS),1.42754,P,ugm-3,7.60888,P,ugm-3,9.79774,P,ugm-3,68.05337,P,ugm-3,5.731,P,ugm-3 (Ref.eq)
07-01-2024,21:00,11.300,P,ugm-3 (FIDAS),2.03934,P,ugm-3,13.49795,P,ugm-3,16.62488,P,ugm-3,60.22025,P,ugm-3,6.132,P,ugm-3 (Ref.eq)
07-01-2024,22:00,11.925,P,ugm-3 (FIDAS),1.73344,P,ugm-3,7.92158,P,ugm-3,10.57947,P,ugm-3,65.75832,P,ugm-3,6.179,P,ugm-3 (Ref.eq)
07-01-2024,23:00,9.150,P,ugm-3 (FIDAS),1.46152,P,ugm-3,5.78483,P,ugm-3,8.02581,P,ugm-3,66.90584,P,ugm-3,4.906,P,ugm-3 (Ref.eq)
07-01-2024,24:00,9.725,P,ugm-3 (FIDAS),1.35956,P,ugm-3,6.61868,P,ugm-3,8.70331,P,ugm-3,62.96434,P,ugm-3,5.613,P,ugm-3 (Ref.eq)
08-01-2024,01:00,9.550,P,ugm-3 (FIDAS),1.63147,P,ugm-3,6.18439,P,ugm-3,8.68594,P,ugm-3,63.59631,P,ugm-3,5.212,P,ugm-3 (Ref.eq)
08-01-2024,02:00,9.225,P,ugm-3 (FIDAS),1.26892,P,ugm-3,5.90644,P,ugm-3,7.85209,P,ugm-3,61.20147,P,ugm-3,5.165,P,ugm-3 (Ref.eq)
08-01-2024,03:00,8.650,P,ugm-3 (FIDAS),1.46152,P,ugm-3,4.95098,P,ugm-3,7.19196,P,ugm-3,60.91874,P,ugm-3,5.212,P,ugm-3 (Ref.eq)
08-01-2024,04:00,7.550,P,ugm-3 (FIDAS),1.73344,P,ugm-3,4.11713,P,ugm-3,6.77503,P,ugm-3,62.66498,P,ugm-3,4.505,P,ugm-3 (Ref.eq)
08-01-2024,05:00,7.700,P,ugm-3 (FIDAS),1.46152,P,ugm-3,4.01290,P,ugm-3,6.25388,P,ugm-3,62.81466,P,ugm-3,4.316,P,ugm-3 (Ref.eq)
08-01-2024,06:00,8.175,P,ugm-3 (FIDAS),1.56349,P,ugm-3,4.69041,P,ugm-3,7.08773,P,ugm-3,58.62369,P,ugm-3,4.859,P,ugm-3 (Ref.eq)
08-01-2024,07:00,7.575,P,ugm-3 (FIDAS),2.10731,P,ugm-3,8.65119,P,ugm-3,11.88236,P,ugm-3,53.73422,P,ugm-3,4.458,P,ugm-3 (Ref.eq)
08-01-2024,08:00,8.125,P,ugm-3 (FIDAS),6.59385,P,ugm-3,20.79413,P,ugm-3,30.90457,P,ugm-3,43.95529,P,ugm-3,4.646,P,ugm-3 (Ref.eq)
08-01-2024,09:00,9.600,P,ugm-3 (FIDAS),4.18064,P,ugm-3,23.45203,P,ugm-3,29.86225,P,ugm-3,46.69938,P,ugm-3,4.151,P,ugm-3 (Ref.eq)
08-01-2024,10:00,12.550,P,ugm-3 (FIDAS),3.90873,P,ugm-3,22.30549,P,ugm-3,28.29878,P,ugm-3,45.00304,P,ugm-3,5.425,P,ugm-3 (Ref.eq)
08-01-2024,11:00,8.850,P,ugm-3 (FIDAS),2.65114,P,ugm-3,19.28278,P,ugm-3,23.34780,P,ugm-3,51.23960,P,ugm-3,4.410,P,ugm-3 (Ref.eq)
08-01-2024,12:00,10.275,P,ugm-3 (FIDAS),2.58316,P,ugm-3,14.69661,P,ugm-3,18.65739,P,ugm-3,55.38068,P,ugm-3,4.434,P,ugm-3 (Ref.eq)
08-01-2024,13:00,9.450,P,ugm-3 (FIDAS),2.03934,P,ugm-3,9.48504,P,ugm-3,12.61198,P,ugm-3,60.02068,P,ugm-3,4.363,P,ugm-3 (Ref.eq)
08-01-2024,14:00,11.375,P,ugm-3 (FIDAS),2.20928,P,ugm-3,9.48504,P,ugm-3,12.87256,P,ugm-3,63.11401,P,ugm-3,5.142,P,ugm-3 (Ref.eq)
08-01-2024,15:00,12.675,P,ugm-3 (FIDAS),1.80141,P,ugm-3,6.35811,P,ugm-3,9.12023,P,ugm-3,68.15316,P,ugm-3,5.708,P,ugm-3 (Ref.eq)